Location: Wanzleben
(52.0609°N, 11.4408°E)
Time: 02:16:37
(UTC+00:00)

COSMOS 2406 - Pass Details

Date: 23 January 2021
Orbit: 841 x 865 km, 71.0° (Epoch: 05 March)

Event Time Altitude Azimuth Distance (km) Brightness Sun altitude
Rises 20:18:20 0° 316° (NW) 3,458 7.1 -41.0°
Reaches altitude 10° 20:22:23 10° 289° (WNW) 2,512 6.3 -41.6°
Maximum altitude 20:24:39 12° 265° (W) 2,333 6.0 -41.9°
Enters shadow 20:26:21 11° 247° (WSW) 2,430 5.9 -42.1°
